Phoenix-Mesa Gateway Airport, AZ

9:12 AM MST on March 26, 2017 (GMT -0700)
Phoenix-Mesa Gateway Airport

Weather History for KIWA - August, 2014

Change the Weather History Date:

Wednesday, August 20, 2014

  Actual Average Record
Temperature  
Mean Temperature 84 °F -  
Max Temperature 95 °F 100 °F 109 °F (2010)
Min Temperature 73 °F 78 °F 73 °F (2014)
Cooling Degree Days 19    
Growing Degree Days 34 (Base 50)    
Moisture  
Dew Point 60 °F    
Average Humidity 50    
Maximum Humidity 73    
Minimum Humidity 23    
Precipitation  
Precipitation 0.00 in - - ()
Sea Level Pressure  
Sea Level Pressure 29.90 in    
Wind  
Wind Speed 6 mph (ESE)    
Max Wind Speed 14 mph    
Max Gust Speed -    
Visibility 13 miles    
Events      
Averages and records for this station are not official NWS values.
T = Trace of Precipitation, MM = Missing Value Source: NWS Daily Summary

Daily Weather History Graph

Daily Weather History Graph

Search for Another Location

Airport or City:

Trip Planner

Search our weather history database for the weather conditions in past years. The results will help you decide how hot, cold, wet, or windy it might be!

Date:

Astronomy

Aug. 20, 2014 Rise Set
Actual Time 5:52 AM MST 7:06 PM MST
Civil Twilight 5:26 AM MST 7:32 PM MST
Nautical Twilight 4:56 AM MST 8:03 PM MST
Astronomical Twilight 4:23 AM MST 8:35 PM MST
Moon 1:41 AM MST (8/20) 3:49 PM MST (8/20)
Length of Visible Light 14h 05m
Length of Day
13h 13m
Waning Crescent, 20% of the Moon is Illuminated
Aug 20
Waning Crescent
Aug 25
New
Sep 2
First Quarter
Sep 8
Full
Sep 15
Last Quarter

Hourly Weather History & Observations

Time (MST) Temp. Heat Index Dew Point Humidity Pressure Visibility Wind Dir Wind Speed Gust Speed Precip Events Conditions
12:15 AM 78.8 °F - 62.6 °F 57% 29.86 in 10.0 mi SE 13.8 mph - N/A   Clear
12:35 AM 78.8 °F - 64.4 °F 61% 29.87 in 10.0 mi ESE 10.4 mph - N/A   Clear
12:55 AM 78.8 °F - 64.4 °F 61% 29.88 in 10.0 mi NNE 3.5 mph - N/A   Clear
1:15 AM 78.8 °F - 64.4 °F 61% 29.88 in 10.0 mi East 5.8 mph - N/A   Clear
1:35 AM 78.8 °F - 64.4 °F 61% 29.88 in 10.0 mi ESE 5.8 mph - N/A   Clear
1:55 AM 78.8 °F - 64.4 °F 61% 29.88 in 10.0 mi Calm Calm - N/A   Clear
2:15 AM 77.0 °F - 66.2 °F 69% 29.89 in 10.0 mi Calm Calm - N/A   Clear
2:35 AM 77.0 °F - 66.2 °F 69% 29.89 in 10.0 mi Calm Calm - N/A   Scattered Clouds
2:55 AM 78.8 °F - 66.2 °F 65% 29.90 in 10.0 mi Calm Calm - N/A   Clear
3:15 AM 75.2 °F - 64.4 °F 69% 29.90 in 10.0 mi SE 4.6 mph - N/A   Clear
3:35 AM 73.4 °F - 64.4 °F 73% 29.90 in 10.0 mi SE 4.6 mph - N/A   Mostly Cloudy
3:55 AM 75.2 °F - 64.4 °F 69% 29.90 in 10.0 mi ESE 5.8 mph - N/A   Scattered Clouds
4:15 AM 73.4 °F - 64.4 °F 73% 29.91 in 10.0 mi East 4.6 mph - N/A   Clear
4:35 AM 73.4 °F - 64.4 °F 73% 29.91 in 10.0 mi East 3.5 mph - N/A   Clear
4:47 AM 75.2 °F - 64.4 °F 69% 29.91 in 20.0 mi East 3.5 mph - N/A   Partly Cloudy
5:50 AM 75.2 °F - 64.4 °F 69% 29.93 in 20.0 mi ESE 4.6 mph - N/A   Scattered Clouds
6:47 AM 73.4 °F - 64.4 °F 73% 29.94 in 45.0 mi SE 4.6 mph - N/A   Scattered Clouds
7:47 AM 78.8 °F - 66.2 °F 65% 29.95 in 45.0 mi ESE 5.8 mph - N/A   Partly Cloudy
8:47 AM 82.4 °F 83.9 °F 64.4 °F 54% 29.97 in 45.0 mi ESE 8.1 mph - N/A   Partly Cloudy
9:47 AM 84.2 °F 85.0 °F 62.6 °F 48% 29.97 in 45.0 mi ESE 3.5 mph - N/A   Partly Cloudy
10:47 AM 87.8 °F 87.6 °F 60.8 °F 40% 29.97 in 45.0 mi South 4.6 mph - N/A   Partly Cloudy
11:47 AM 91.4 °F 89.9 °F 57.2 °F 31% 29.95 in 35.0 mi Calm Calm - N/A   Partly Cloudy
12:47 PM 93.2 °F 91.9 °F 57.2 °F 30% 29.94 in 45.0 mi NNW 3.5 mph - N/A   Scattered Clouds
2:23 PM 93.2 °F - 51.8 °F 24% 29.90 in 35.0 mi WNW 4.6 mph - N/A   Mostly Cloudy
2:47 PM 93.2 °F - 51.8 °F 24% 29.88 in 45.0 mi NNW 3.5 mph - N/A   Scattered Clouds
3:47 PM 95.0 °F - 51.8 °F 23% 29.86 in 35.0 mi NW 4.6 mph - N/A   Mostly Cloudy
4:47 PM 95.0 °F - 51.8 °F 23% 29.84 in 35.0 mi NW 5.8 mph - N/A   Mostly Cloudy
5:50 PM 93.2 °F - 51.8 °F 24% 29.83 in 35.0 mi WNW 5.8 mph - N/A   Mostly Cloudy
6:47 PM 93.2 °F - 51.8 °F 24% 29.82 in 35.0 mi NW 4.6 mph - N/A   Mostly Cloudy
7:47 PM 93.2 °F 90.8 °F 53.6 °F 26% 29.85 in 20.0 mi NW 4.6 mph - N/A   Mostly Cloudy
8:47 PM 91.4 °F 89.4 °F 55.4 °F 29% 29.87 in 20.0 mi Calm Calm - N/A   Mostly Cloudy
9:47 PM 87.8 °F 85.7 °F 53.6 °F 31% 29.90 in 20.0 mi SSW 11.5 mph - N/A   Mostly Cloudy
10:47 PM 86.0 °F 84.5 °F 55.4 °F 35% 29.90 in 20.0 mi WSW 8.1 mph - N/A   Mostly Cloudy
11:47 PM 84.2 °F 83.0 °F 55.4 °F 37% 29.91 in 20.0 mi North - - N/A   Mostly Cloudy